Retour au catalogue

CZ-6A DEB

ActifPO
NORAD 61131·DEBRIS·🇨🇳 China

Lancé Aug 6, 2024 depuis Taiyuan Satellite Launch Center

Loading…

Prochains Passages (prochaines 24 heures)

TLE

FraisSource: Space-Track

Époque: Sep 14, 2026, 12:24 UTC

1 61131U 24140PZ  26257.51692335  .00009502  00000-0  23404-2 0  9990
2 61131  89.1914 279.8727 0047146  72.3021 288.3325 14.51467785108586

Suivez CZ-6A DEB en temps réel avec AllMySat

Download on the App Store